[Date Prev][Date Next][Thread Prev][Thread Next] - [Date Index][Thread Index][Author Index]
2 Line ISS Keps 10-10
- Subject: [sarex] 2 Line ISS Keps 10-10
- From: "Dave Larsen PhD" <doc@xxxxxxxxxxx>
- Date: Sun, 9 Oct 2005 19:18:46 -0700
ISS
1 25544U 98067A 05282.97002315 .00021093 00000-0 14960-3 0 5189
2 25544 051.6457 032.9359 0001709 087.3253 064.5988 15.73893417393740
----
Via the sarex mailing list at AMSAT.ORG courtesy of AMSAT-NA.
To unsubscribe, send "unsubscribe sarex" to Majordomo@amsat.org
AMSAT Home